Location: Newark
(34.0131°N, 4.3314°W)
Time: 11:37:03
(UTC+00:00)

Courier 1B - Pass Details

Date: 31 October 2019
Orbit: 963 x 1209 km, 28.3° (Epoch: 17 November)

Event Time Altitude Azimuth Distance (km) Brightness Sun altitude
Rises 19:19:14 0° 268° (W) 4,049 12.2 -24.0°
Reaches altitude 10° 19:22:43 10° 254° (WSW) 3,111 11.1 -24.7°
Maximum altitude 19:28:28 23° 206° (SSW) 2,316 9.7 -25.9°
Enters shadow 19:33:54 11° 160° (SSE) 3,048 9.9 -27.0°
